Showing default

IRIDIUM 108, 41924

Orbit data source: Space-Track

IRIDIUM 108, 41924 is a payload satellite owned by Iridium (US) in LEO that was launched on Sat, 14 Jan 2017 UTC via an FALCON 9 launch vehicle from the Air Force Western Test Range (AFWTR). Payload-class satellites include a variety of spacecraft equipped with specific instruments for various scientific and technological missions. These include communications satellites like Starlink; space stations such as the ISS; scientific satellites like the Hubble; Earth observation satellites from companies like Planet Labs, Umbra, and HawkEye 360; GPS; miniature CubeSats for education and research; and military/defense satellites.

Loading next visibility...
Identifier
41924, 2017-003H
Orbit
LEO
Country
Flag of USUS
Related business
Manufacturer
OATK SSG Gilbert
Mission
Operational Commercial Communications
Bus & Motor
ELITEBUS, Unknown motor
Mass
860 kg wet, 700 kg dry
Launch date (UTC)
2017-01-14 (9 years ago)
Launch vehicle
FALCON 9
Launch site
Air Force Western Test Range (AFWTR)
Object type
Payload
Rocket body
Debris
Shape & HBR
Trap Box + 2 Pan, 4.8 m
Radar Cross Section
10.154 m², Large (>1 m²)

Expand to show TLE details & history
Last TLE update: 13 hours ago

TLE from 13 hours ago
0 IRIDIUM 108
1 41924U 17003H   25286.61257313  .00000215  00000-0  69698-4 0  9992
2 41924  86.4010 159.8365 0001969  84.7266 275.4155 14.34216608459761
Epoch: 2025-10-13T14:42Z
TLE epoch observation values (Epoch: 2025-10-13T14:42:06.318Z)
Latitude
0.00003°
Longitude
-83.10267°
Altitude
780.589 km
Speed
7.464 km/s
True Right ascension
10h 39m 20s
True Declination
0° 00' 00"
Sunlit
Object was in daylight at epoch
Visualization orbit readout
Latitude
Unknown
Longitude
Unknown
Altitude
Unknown
Speed
Unknown
Apparent Right ascension
Unknown
Apparent Declination
Unknown
Sunlit
N/A
Visualization observer readout
Local Sidereal Time
22:03:41
Azimuth
Unknown
Elevation
Unknown
Doppler factor
Unknown
Orbital elements
Apogee altitude
776.044 km
Perigee altitude
773.227 km
Semi-major axis
7,152.772 km
Eccentricity
0.0002
Inclination
86.401°
RAAN
159.8365°
Arg. of periapsis
84.7266°
True anomaly
275.39304°
Mean anomaly
275.4155°
Eccentric anomaly
275.40427°
Mean motion
3.58783 °/min
Orbital period
100.34 mins
BSTAR
0.000069698
Loading maneuver chart data...
Computing Atmospheric mass density...
Loading historical data...
Loading historical data...
Loading historical data...
Loading historical data...
Loading historical data...
Loading historical data...
Loading historical data...

Documentation

Showing up to 5 results
|